Weather History for Thedford, NE

Change the Weather History Date:

Monday, August 19, 2013

  Actual Average (KLBF) Record (KLBF)
Temperature  
Mean Temperature 78 °F 72 °F  
Max Temperature 92 °F 86 °F 99 °F (1952)
Min Temperature 64 °F 58 °F 38 °F (1978)
Degree Days  
Heating Degree Days 0 0  
Month to date heating degree days 0  
Since 1 June heating degree days 56  
Since 1 July heating degree days 5  
Cooling Degree Days 13 7  
Month to date cooling degree days 161  
Year to date cooling degree days 620  
Since 1 June cooling degree days 592  
Growing Degree Days 28 (Base 50)    
Moisture  
Dew Point 62 °F    
Average Humidity 63    
Maximum Humidity 89    
Minimum Humidity 28    
Precipitation  
Precipitation 0.00 in 0.06 in 1.89 in (1920)
Month to date precipitation 1.62  
Year to date precipitation 15.55  
Snow  
Snow 0.00 in 0.00 in 0.00 in (2002)
Month to date snowfall 0.0  
Since 1 June snowfall 0.0  
Since 1 July snowfall 0.0  
Snow Depth -    
Sea Level Pressure  
Sea Level Pressure 30.00 in    
Wind  
Wind Speed 7 mph (SSW)    
Max Wind Speed 14 mph    
Max Gust Speed 20 mph    
Visibility 10 miles    
Events      
T = Trace of Precipitation, MM = Missing Value Source: NWS Daily Summary

Daily Weather History Graph

Daily Weather History Graph

Search for Another Location

Airport:

Trip Planner

Search our weather history database for the weather conditions in past years. The results will help you decide how hot, cold, wet, or windy it might be!

Date:

Astronomy

Aug. 19, 2013 Rise Set
Actual Time 6:54 AM CDT 8:36 PM CDT
Civil Twilight 6:25 AM CDT 9:05 PM CDT
Nautical Twilight 5:48 AM CDT 9:41 PM CDT
Astronomical Twilight 5:10 AM CDT 10:19 PM CDT
Moon 7:28 PM CDT (8/19) 5:15 AM CDT (8/19)
Length of Visible Light 14h 40m
Length of Day
13h 41m
Waxing Gibbous, 97% of the Moon is Illuminated
Aug 19
Waxing Gibbous
Aug 20
Full
Aug 28
Last Quarter
Sep 5
New
Sep 12
First Quarter

Hourly Weather History & Observations

Time (CDT) Temp. Heat Index Dew Point Humidity Pressure Visibility Wind Dir Wind Speed Gust Speed Precip Events Conditions
12:15 AM 71.1 °F - 62.4 °F 74% 30.04 in 10.0 mi South 10.4 mph 17.3 mph N/A   Clear
12:35 AM 70.7 °F - 62.2 °F 75% 30.03 in 10.0 mi South 13.8 mph 19.6 mph N/A   Clear
12:55 AM 70.3 °F - 62.1 °F 75% 30.03 in 10.0 mi South 12.7 mph 19.6 mph N/A   Clear
1:15 AM 70.0 °F - 62.1 °F 76% 30.04 in 10.0 mi South 10.4 mph 16.1 mph N/A   Clear
1:35 AM 69.3 °F - 62.1 °F 78% 30.03 in 10.0 mi South 8.1 mph - N/A   Clear
1:55 AM 68.7 °F - 61.9 °F 79% 30.03 in 10.0 mi South 8.1 mph - N/A   Clear
2:15 AM 67.8 °F - 62.1 °F 82% 30.03 in 10.0 mi SSW 6.9 mph - N/A   Clear
2:35 AM 67.6 °F - 62.2 °F 83% 30.03 in 10.0 mi SSW 8.1 mph - N/A   Clear
2:55 AM 67.5 °F - 62.2 °F 83% 30.03 in 10.0 mi South 6.9 mph - N/A   Clear
3:15 AM 67.1 °F - 62.1 °F 84% 30.02 in 10.0 mi SSW 8.1 mph - N/A   Clear
3:35 AM 66.6 °F - 62.2 °F 86% 30.02 in 10.0 mi SSW 6.9 mph - N/A   Clear
3:55 AM 66.2 °F - 62.1 °F 86% 30.02 in 10.0 mi SSW 4.6 mph - N/A   Clear
4:15 AM 66.2 °F - 62.1 °F 86% 30.02 in 10.0 mi SSW 4.6 mph - N/A   Clear
4:35 AM 65.5 °F - 61.9 °F 88% 30.02 in 10.0 mi Calm Calm - N/A   Clear
4:55 AM 65.3 °F - 61.7 °F 88% 30.01 in 7.0 mi Calm Calm - N/A   Clear
5:15 AM 64.4 °F - 61.0 °F 89% 30.01 in 7.0 mi SSW 3.5 mph - N/A   Clear
5:35 AM 64.6 °F - 61.3 °F 89% 30.01 in 7.0 mi SSW 3.5 mph - N/A   Clear
5:55 AM 64.8 °F - 61.3 °F 89% 30.01 in 7.0 mi SSW 3.5 mph - N/A   Clear
6:15 AM 64.8 °F - 61.3 °F 89% 30.01 in 7.0 mi SSW 3.5 mph - N/A   Clear
6:35 AM 64.9 °F - 61.7 °F 89% 30.01 in 7.0 mi SSW 5.8 mph - N/A   Clear
6:55 AM 64.9 °F - 61.5 °F 89% 30.02 in 7.0 mi SW 5.8 mph - N/A   Clear
7:15 AM 64.9 °F - 61.5 °F 89% 30.02 in 7.0 mi SSW 3.5 mph - N/A   Clear
7:35 AM 64.8 °F - 61.3 °F 89% 30.03 in 5.0 mi Calm Calm - N/A   Clear
7:55 AM 65.3 °F - 61.9 °F 89% 30.03 in 5.0 mi Calm Calm - N/A   Clear
8:15 AM 66.7 °F - 62.6 °F 86% 30.03 in 7.0 mi SW 5.8 mph - N/A   Clear
8:35 AM 68.2 °F - 63.0 °F 83% 30.03 in 10.0 mi SSW 5.8 mph - N/A   Clear
8:55 AM 70.0 °F - 63.5 °F 80% 30.03 in 10.0 mi SW 8.1 mph - N/A   Clear
9:15 AM 71.8 °F - 63.9 °F 76% 30.03 in 10.0 mi WSW 6.9 mph - N/A   Clear
9:35 AM 74.3 °F - 64.4 °F 71% 30.02 in 10.0 mi WSW 8.1 mph - N/A   Clear
9:55 AM 76.6 °F - 64.6 °F 66% 30.02 in 10.0 mi WSW 8.1 mph - N/A   Clear
10:15 AM 78.6 °F - 64.4 °F 62% 30.02 in 10.0 mi West 8.1 mph - N/A   Clear
10:35 AM 80.1 °F 81.8 °F 64.4 °F 59% 30.02 in 10.0 mi West 6.9 mph - N/A   Clear
10:55 AM 81.7 °F 83.2 °F 64.2 °F 55% 30.02 in 10.0 mi West 8.1 mph - N/A   Clear
11:15 AM 82.9 °F 84.4 °F 64.2 °F 53% 30.02 in 10.0 mi West 6.9 mph - N/A   Clear
11:35 AM 84.6 °F 85.4 °F 62.6 °F 48% 30.02 in 10.0 mi West 6.9 mph - N/A   Clear
11:55 AM 85.1 °F 85.9 °F 63.0 °F 47% 30.02 in 10.0 mi West 3.5 mph - N/A   Clear
12:15 PM 86.7 °F 86.5 °F 60.1 °F 41% 30.02 in 10.0 mi WSW 4.6 mph - N/A   Clear
12:35 PM 88.0 °F 87.4 °F 59.5 °F 38% 30.01 in 10.0 mi Calm Calm - N/A   Clear
12:55 PM 88.0 °F 86.9 °F 58.3 °F 36% 30.01 in 10.0 mi Calm Calm - N/A   Clear
1:15 PM 89.2 °F 88.4 °F 59.0 °F 36% 30.01 in 10.0 mi Calm Calm - N/A   Clear
1:35 PM 89.8 °F 88.6 °F 58.3 °F 34% 30.00 in 10.0 mi Calm Calm - N/A   Clear
1:55 PM 90.9 °F 89.7 °F 57.7 °F 33% 30.00 in 10.0 mi SW 8.1 mph - N/A   Clear
2:15 PM 91.0 °F 89.7 °F 57.6 °F 32% 30.00 in 10.0 mi South 6.9 mph - N/A   Clear
2:35 PM 91.6 °F 89.8 °F 56.3 °F 30% 30.00 in 10.0 mi WSW 5.8 mph - N/A   Clear
2:55 PM 91.4 °F 89.6 °F 55.8 °F 30% 30.00 in 10.0 mi Calm Calm - N/A   Clear
3:15 PM 91.8 °F 90.3 °F 56.7 °F 31% 30.00 in 10.0 mi South 8.1 mph - N/A   Clear
3:35 PM 91.9 °F 90.3 °F 56.7 °F 30% 29.99 in 10.0 mi South 4.6 mph - N/A   Clear
3:55 PM 91.8 °F 89.8 °F 55.6 °F 29% 29.99 in 10.0 mi SSW 3.5 mph - N/A   Clear
4:15 PM 92.1 °F 90.0 °F 55.0 °F 28% 29.98 in 10.0 mi SSW 6.9 mph - N/A   Clear
4:35 PM 91.6 °F 90.4 °F 57.7 °F 32% 29.98 in 10.0 mi South 11.5 mph - N/A   Clear
4:55 PM 91.4 °F 90.1 °F 58.1 °F 32% 29.98 in 10.0 mi SSW 9.2 mph - N/A   Clear
5:15 PM 91.4 °F 91.0 °F 60.4 °F 35% 29.97 in 10.0 mi SSW 5.8 mph - N/A   Clear
5:35 PM 91.4 °F 90.1 °F 58.1 °F 32% 29.97 in 10.0 mi SSW 4.6 mph - N/A   Clear
5:55 PM 91.0 °F 89.7 °F 57.7 °F 32% 29.97 in 10.0 mi SSW 5.8 mph - N/A   Clear
6:15 PM 90.5 °F 89.8 °F 59.5 °F 35% 29.97 in 10.0 mi South 8.1 mph - N/A   Clear
6:35 PM 90.1 °F 90.6 °F 61.9 °F 39% 29.96 in 10.0 mi South 5.8 mph - N/A   Clear
6:55 PM 89.6 °F 91.1 °F 64.2 °F 43% 29.96 in 10.0 mi SSE 5.8 mph - N/A   Clear
7:15 PM 88.7 °F 90.1 °F 64.4 °F 44% 29.96 in 10.0 mi SSE 5.8 mph - N/A   Clear
7:35 PM 87.3 °F 89.5 °F 66.2 °F 49% 29.96 in 10.0 mi SSE 5.8 mph - N/A   Clear
7:55 PM 85.6 °F 88.5 °F 67.3 °F 54% 29.96 in 10.0 mi SSE 5.8 mph - N/A   Clear
8:15 PM 83.7 °F 86.7 °F 68.0 °F 59% 29.96 in 10.0 mi SSE 6.9 mph - N/A   Clear
8:35 PM 81.3 °F 84.0 °F 67.6 °F 63% 29.96 in 10.0 mi SSE 5.8 mph - N/A   Clear
8:55 PM 79.5 °F - 67.1 °F 66% 29.96 in 10.0 mi SE 6.9 mph - N/A   Clear
9:15 PM 78.1 °F - 67.6 °F 70% 29.96 in 10.0 mi SSE 8.1 mph - N/A   Clear
9:35 PM 77.0 °F - 68.0 °F 74% 29.97 in 10.0 mi SSE 6.9 mph - N/A   Clear
9:55 PM 75.9 °F - 68.0 °F 76% 29.97 in 10.0 mi SSE 6.9 mph - N/A   Clear
10:15 PM 75.4 °F - 68.0 °F 78% 29.97 in 10.0 mi SSE 8.1 mph - N/A   Clear
10:35 PM 75.6 °F - 67.1 °F 75% 29.97 in 10.0 mi SSE 9.2 mph - N/A   Clear
10:55 PM 75.9 °F - 66.2 °F 72% 29.97 in 10.0 mi SSE 9.2 mph - N/A   Clear
11:15 PM 76.1 °F - 65.7 °F 70% 29.97 in 10.0 mi SSE 9.2 mph - N/A   Clear
11:35 PM 76.3 °F - 65.3 °F 69% 29.97 in 10.0 mi South 10.4 mph - N/A   Clear
11:55 PM 75.7 °F - 65.3 °F 70% 29.97 in 10.0 mi South 10.4 mph - N/A   Clear